Location: Home
(42.5358°N, 72.7383°W)
Time: 14:50:38
(UTC-05:00)

Explorer 11/Cluster Stage 4 - Pass Details

Date: 14 December 2025
Orbit: 463 x 1179 km, 28.8° (Epoch: 21 January)

Event Time Altitude Azimuth Distance (km) Brightness Sun altitude
Rises 17:33:52 0° 221° (SW) 4,048 11.3 -13.4°
Reaches altitude 10° 17:37:46 10° 204° (SSW) 3,055 10.2 -14.1°
Maximum altitude 17:42:40 18° 164° (SSE) 2,397 9.1 -14.9°
Drops below altitude 10° 17:47:17 10° 123° (ESE) 2,847 9.1 -15.7°
Enters shadow 17:47:51 - 120° (ESE) 2,967 9.1 -15.8°
